Location: Bellevue
(42.7942°N, 73.9696°W)
Time: 00:05:58
(UTC+00:00)

Daily predictions for brighter satellites

Satellite Brightness Start Highest point End
(mag) Time Altitude Azimuth Time Altitude Azimuth Time Altitude Azimuth
Meteor 1-27 Rocket 4.3 00:47:45 10° SSE 00:53:07 42° E 00:58:37 10° NNE
Cosmos 1470 Rocket 4.1 00:50:42 10° N 00:54:49 41° ENE 00:58:53 10° SSE
Tsikada Rocket 4.5 00:48:40 10° NNW 00:54:56 68° W 01:01:04 10° S
Cosmos 2344 3.8 00:47:42 10° S 00:54:58 46° ESE 01:01:59 10° NE
Cosmos 2208 Rocket 4.2 00:51:11 10° NNW 00:56:39 86° WSW 01:02:01 10° SSE
Cosmos 2219 3.3 00:53:05 10° NNW 00:58:44 70° ENE 01:04:19 10° SSE
OAO 3 Rocket 4.2 00:54:39 10° WSW 00:59:00 32° S 01:03:25 10° ESE
USA 238 DEB 4.3 00:55:16 10° NW 01:02:33 66° WSW 01:10:10 10° SSE
USA 238 4.3 00:55:23 10° NW 01:02:40 66° WSW 01:10:17 10° SSE
Cosmos 2082 4.3 00:59:57 10° NNW 01:05:17 42° ENE 01:10:35 10° SE
Ariane Rocket 3.6 01:01:15 10° SE 01:05:59 42° ENE 01:10:46 10° N
Resurs 01 Rocket 1.9 01:02:37 10° SSE 01:06:52 51° ENE 01:11:08 10° N
Cosmos 1515 Rocket 3.8 01:03:23 10° SSE 01:07:34 48° E 01:11:48 10° NNE
Cosmos 2263 Rocket 3.6 01:03:09 10° N 01:07:37 24° NE 01:12:02 10° ESE
Meteor 1-11 Rocket 3.9 01:02:48 10° N 01:08:47 69° ENE 01:14:40 10° SSE
Terra 4.0 01:07:41 10° E 01:09:19 12° ENE 01:10:58 10° NE
Cosmos 921 Rocket 4.1 01:08:10 10° N 01:12:15 32° ENE 01:16:00 11° SE
PSLV R/B 3.8 01:08:54 10° NNE 01:12:57 71° ESE 01:16:57 10° S
IGS 5A 4.0 01:10:09 10° S 01:14:13 58° W 01:18:21 10° NNW
Landsat 7 3.9 01:11:00 10° SSE 01:15:43 82° WSW 01:20:27 10° NNW
ISS -1.7 01:13:17 10° NW 01:16:02 23° NNE 01:18:48 10° ENE
Okean-O 4.4 01:14:57 10° SSW 01:18:49 30° W 01:22:45 10° NW
IRAS Rocket 4.3 01:14:30 10° NNE 01:20:06 62° ESE 01:25:40 10° S
CARTOSAT-1 4.5 01:17:29 12° SE 01:21:00 33° ENE 01:24:53 10° N
Aureole 1 Rocket 2.1 01:19:09 10° SSW 01:22:26 85° ESE 01:25:26 10° NNE
Cosmos 2228 Rocket 4.4 01:21:20 12° SE 01:24:26 24° E 01:28:05 10° NE
Cosmos 2227 Rocket 2.6 01:20:47 10° NNW 01:26:24 64° WSW 01:31:58 10° S
Cosmos 1536 2.8 01:25:10 10° N 01:29:12 81° E 01:33:11 10° S
Okean 1 4.1 01:26:46 13° SSE 01:29:56 34° E 01:33:35 10° NNE
Cosmos 1980 Rocket 2.2 01:27:48 10° SSW 01:33:21 66° ESE 01:38:59 10° NNE
RESURS DK-1 2.9 01:30:28 10° S 01:34:14 36° ESE 01:38:01 10° NE
SL-4 R/B 2.4 01:30:49 10° WNW 01:35:22 64° SW 01:38:30 18° SE
ARGOS Delta rocket 4.2 01:30:57 10° N 01:36:28 90° W 01:41:51 10° SSW
H-2A R/B 3.1 01:34:43 10° N 01:38:38 45° WNW 01:42:33 10° SW
Cosmos 1184 Rocket 2.5 01:36:02 10° S 01:39:02 86° W 01:42:05 10° N
Cosmos 1354 Rocket 4.0 01:34:30 10° S 01:39:41 64° ESE 01:44:56 10° NNE
Spot 2 Rocket 4.4 01:36:14 15° SE 01:39:42 34° ENE 01:44:14 10° N
Cosmos 773 Rocket 4.4 01:37:04 10° N 01:42:07 47° ENE 01:45:41 18° SE
SPOT 3 Rocket 3.8 01:38:07 16° SE 01:42:10 57° ENE 01:47:13 10° N
Cosmos 2322 Rocket 3.8 01:41:30 13° ESE 01:42:31 14° E 01:45:18 10° ENE
Cosmos 2369 3.7 01:37:54 10° SSW 01:43:33 89° NW 01:49:15 10° NNE
Cosmos 1464 Rocket 4.0 01:40:51 10° S 01:47:03 86° W 01:53:15 10° N
ARIANE 5 R/B 4.3 01:46:14 14° ESE 01:48:34 20° ENE 01:51:51 10° NNE
Cosmos 1697 Rocket 3.9 01:46:48 10° SW 01:52:14 46° WNW 01:57:42 10° NNE
Meteor 1-19 Rocket 4.1 01:47:01 10° S 01:52:22 63° E 01:57:43 10° NNE
Cosmos 389 Rocket 3.0 01:50:40 10° NNW 01:54:08 56° W 01:56:49 15° S
Cosmos 44 Rocket 4.3 01:50:18 10° NNW 01:54:35 33° NE 01:57:34 17° ESE
CZ-4B R/B 3.1 01:52:49 10° N 01:55:43 32° WNW 01:58:33 10° SW
Cosmos 1975 3.9 01:55:28 10° NNE 01:59:05 30° ENE 02:00:36 23° ESE
MetOp-B 4.2 01:56:39 15° S 02:01:06 78° WSW 02:06:30 10° NNW
Cosmos 1092 Rocket 4.3 01:56:15 10° N 02:02:16 52° ENE 02:06:04 22° SE
Cosmos 2297 Rocket 4.3 01:58:35 10° NW 02:02:43 21° W 02:06:51 10° SSW
Nadezhda 4 Rocket 4.0 01:56:38 10° N 02:02:53 90° SE 02:07:53 16° S
ATLAS 2AS CENTAUR R/B 2.9 01:55:47 10° SSW 02:03:36 80° ESE 02:11:13 10° NE
Meteor 2-14 Rocket 4.4 01:58:12 10° N 02:04:18 79° E 02:08:47 19° SSE
Cosmos 1634 Rocket 4.3 02:03:53 21° SSE 02:07:46 46° E 02:13:38 10° NNE
Helios 1A Rocket 2.8 02:07:25 28° SSE 02:09:24 71° ENE 02:13:24 10° N
EXPRESS MD2 3.5 02:04:26 10° WNW 02:09:42 54° SW 02:10:54 34° SSE
Cosmos 1933 Rocket 4.4 02:06:38 10° NNW 02:10:56 48° W 02:14:36 14° SSW
Meteor 2-9 Rocket 4.2 02:08:11 10° N 02:13:58 89° WSW 02:17:42 22° S
ERS-1 Rocket 3.1 02:12:29 27° SE 02:15:10 60° ENE 02:20:09 10° N
Cosmos 1733 Rocket 4.1 02:13:38 10° NNE 02:17:37 31° ENE 02:18:59 26° ESE
CZ-2C R/B 3.8 02:15:16 10° NNE 02:20:00 60° E 02:22:29 27° S
SJ 16-02 1.8 02:17:06 10° SSW 02:21:24 59° WNW 02:25:44 10° NNE
SL-16 R/B 2.6 02:18:47 26° SSE 02:21:30 43° ESE 02:26:49 10° NE
Cosmos 2026 Rocket 4.0 02:21:06 10° N 02:27:16 70° E 02:30:41 28° SSE
Timation 2 Rocket 4.5 02:21:11 10° NNW 02:27:41 61° WSW 02:32:04 23° S
NOSS 2-1 (E) 2.8 02:29:30 56° ESE 02:29:30 56° ESE 02:32:32 10° NE
Cosmos 1862 Rocket 4.2 02:28:51 34° ESE 02:29:46 38° E 02:33:56 10° NNE
ATLAS 3B R/B 3.4 02:23:02 10° NNW 02:30:13 53° NE 02:35:07 22° ESE
BREEZE M DEB (TANK) 4.0 02:29:30 10° WNW 02:33:59 86° SSW 02:47:28 17° SE
Cosmos 1441 Rocket 4.1 02:35:54 30° E 02:35:54 30° E 02:38:58 10° NNE
Cosmos 1346 Rocket 2.7 02:36:33 46° SSE 02:37:35 70° E 02:41:36 10° NNE
Meteor 1-18 Rocket 4.3 02:34:06 17° SSW 02:38:33 79° W 02:44:12 10° N
Meteor 2-8 Rocket 4.4 02:37:05 26° S 02:40:37 76° E 02:46:43 10° NNE
Cosmos 2278 4.3 02:36:40 10° SW 02:42:14 58° WNW 02:47:51 10° NNE
Gblst 52 Del rocket 4.5 02:36:32 10° SW 02:43:15 56° SE 02:49:07 10° ENE
Resurs 01 Rocket 4.1 02:41:03 10° SW 02:43:38 15° W 02:46:14 10° NW
SPOT 5 3.3 02:43:22 28° S 02:46:05 63° W 02:51:12 10° NNW
Terra 1.7 02:44:34 39° SSE 02:46:21 88° W 02:51:08 10° NNW
Cosmos 2360 Rocket 3.0 02:45:49 30° ESE 02:46:21 31° ESE 02:51:13 10° NE
Cosmos 2292 Rocket 3.1 02:44:42 10° NNW 02:47:36 52° W 02:47:45 51° WSW
Iridium 2 4.3 02:44:43 10° N 02:48:17 40° E 02:48:20 40° E
Cosmos 2263 Rocket 2.5 02:46:27 10° NNW 02:51:54 56° WSW 02:54:16 32° S
ISS -3.8 02:49:48 10° WNW 02:53:04 84° NW 02:53:04 84° NW
Cosmos 1378 4.2 02:52:06 26° SW 02:53:41 41° WNW 02:57:11 10° N
Meteor 2-15 4.4 02:52:59 29° S 02:56:18 89° W 03:02:25 10° N
Cosmos 990 Rocket 4.1 02:57:52 45° SSE 02:59:05 56° ESE 03:04:12 10° NNE
Okean 1-7 3.9 03:07:49 34° E 03:07:49 34° E 03:11:38 10° NNE
NOSS 2-1 (C) 4.1 03:07:58 20° WSW 03:09:50 39° NW 03:12:53 10° NNE
Cosmos 2279 Rocket 3.9 03:07:07 35° S 03:09:56 89° E 03:16:12 10° N
Iridium 4 Rocket 4.2 03:08:17 10° NNE 03:12:34 34° E 03:13:02 34° E
Cosmos 1066 Rocket 4.2 03:10:46 44° SSE 03:12:35 72° E 03:18:15 10° NNE
Cosmos 1898 Rocket 3.7 03:12:30 47° SE 03:13:07 50° ESE 03:18:16 10° NNE
Cosmos 1805 3.4 03:10:12 10° N 03:13:58 61° ENE 03:13:58 61° ENE
Transit 2A Rocket 4.5 03:11:46 10° NW 03:16:08 67° WSW 03:16:30 63° SSW
SL-24 R/B - RUBIN 2 3.9 03:13:17 10° NW 03:17:37 54° WSW 03:18:06 51° SW
USA 215 3.3 03:17:17 10° ENE 03:23:40 52° SE 03:25:34 40° S
ATLAS CENTAUR R/B 3.1 03:19:49 10° NNW 03:24:08 30° NE 03:25:48 24° E
ARIANE 5 R/B 3.4 03:23:46 37° SW 03:24:42 42° W 03:28:59 10° NNW
Cosmos 2322 Rocket 2.2 03:23:15 34° SSW 03:25:46 81° WNW 03:31:26 10° NNE
Cosmos 1733 3.2 03:22:25 10° N 03:25:54 75° N 03:25:54 75° N
BREEZE-M DEB (TANK) 2.3 03:23:37 10° WNW 03:26:15 88° SSW 03:26:21 84° SE
ADEOS Rocket 4.5 03:26:19 17° E 03:28:42 23° ENE 03:33:12 10° N
Cosmos 1766 3.9 03:25:43 10° N 03:29:11 46° ENE 03:29:11 46° ENE
Cosmos 2333 Rocket 2.7 03:31:12 40° ESE 03:31:17 40° ESE 03:36:32 10° NE
Cosmos 1844 Rocket 2.8 03:25:59 10° NNW 03:31:33 65° ENE 03:32:53 49° ESE
Cosmos 44 Rocket 4.2 03:31:51 10° NW 03:36:02 32° WSW 03:36:16 32° WSW
Meteor 1-4 Rocket 3.2 03:32:42 10° NNW 03:35:33 50° NW 03:35:33 50° NW
Cosmos 1703 Rocket 3.5 03:39:39 73° E 03:39:39 73° E 03:44:01 10° NNE
Meteor 1-23 Rocket 4.3 03:40:45 54° SE 03:41:46 63° E 03:47:31 10° NNE
Cosmos 2219 Rocket 2.6 03:49:49 43° ESE 03:49:49 43° ESE 03:54:58 10° NE
Cosmos 372 Rocket 4.1 03:51:00 55° ESE 03:51:00 55° ESE 03:55:59 10° NNE
ERS-2 4.0 03:48:19 10° NE 03:50:03 22° ENE 03:50:03 22° ENE
Cosmos 1844 3.7 03:50:10 10° NNW 03:56:01 85° ENE 03:57:04 61° SSE
Cosmos 1782 Rocket 3.7 03:52:10 10° N 03:56:17 65° ENE 03:56:17 65° ENE
USA 267 4.2 03:52:09 10° E 03:58:15 43° NNE 04:04:22 10° NW
Intercosmos 25 4.4 03:52:04 10° N 04:00:25 71° ENE 04:01:36 56° SE
Cosmos 1726 2.9 03:59:29 10° NNW 04:02:17 49° NNW 04:02:17 49° NNW
Cosmos 1470 3.7 04:01:48 10° N 04:04:47 41° NE 04:04:47 41° NE
SL-16 R/B 3.8 04:00:45 10° WSW 04:05:42 31° NW 04:10:43 10° N
Cosmos 1908 Rocket 4.1 04:03:10 10° NNW 04:07:12 47° W 04:07:12 47° W
Meteor 2-10 4.5 04:06:17 10° NNW 04:11:17 47° W 04:11:51 45° WSW
Cosmos 1300 Rocket 4.1 04:08:03 10° N 04:11:58 50° ENE 04:11:58 50° ENE
Cosmos 2242 Rocket 3.8 04:13:47 64° W 04:13:49 65° W 04:18:21 10° N
ALOS 2 2.8 04:14:10 66° NE 04:14:10 66° NE 04:18:19 10° N
Cosmos 1655 Rocket 4.3 04:11:29 10° NNW 04:17:33 57° W 04:18:59 46° SW
Cosmos 1626 4.2 04:20:39 20° ENE 04:20:39 20° ENE 04:22:22 10° NE
Cosmos 2237 Rocket 3.9 04:20:21 19° E 04:20:21 19° E 04:23:53 10° NE
Okean 2 Rocket 4.3 04:16:01 10° N 04:20:07 33° ENE 04:20:07 33° ENE
ATLAS 3B R/B 3.5 04:14:03 10° NW 04:20:51 39° WSW 04:22:21 36° SW
Cosmos 1842 4.0 04:24:27 49° NW 04:24:27 49° NW 04:27:35 10° N
COSMOS 2428 2.8 04:23:48 58° ESE 04:23:56 58° ESE 04:29:30 10° NNE
Cosmos 1937 Rocket 4.0 04:23:08 45° WSW 04:24:17 54° WNW 04:29:28 10° NNE
CZ-4C R/B 3.4 04:17:39 10° NNW 04:24:50 60° NE 04:29:38 27° ESE
Cosmos 2360 Rocket 3.2 04:27:32 25° WSW 04:30:10 40° WNW 04:35:30 10° NNE
NOSS 3-1 (C) 4.1 04:24:52 10° NW 04:32:30 86° NE 04:36:05 40° SE
Cosmos 1674 4.1 04:34:44 32° NE 04:34:44 32° NE 04:37:06 10° NNE
In-Cosmos 22 4.1 04:34:14 66° SE 04:34:39 68° E 04:40:06 10° NNE
Cosmos 1867 3.4 04:35:35 74° SE 04:35:41 75° ESE 04:41:10 10° NE
Meteor 1-21 4.1 04:41:33 70° S 04:42:15 85° E 04:48:05 10° NNE
Cosmos 1758 4.0 04:42:36 10° N 04:45:45 52° NNE 04:45:45 52° NNE
Sich 1 Rocket 3.7 04:42:25 10° N 04:46:22 70° NNE 04:46:22 70° NNE
Nimbus 7 Rocket 4.4 04:41:40 10° NNE 04:47:30 62° ESE 04:48:07 58° SE
USA 306 4.4 04:54:15 27° ENE 04:54:15 27° ENE 04:56:18 10° ENE
Cosmos 2278 Rocket 3.1 04:46:51 10° NNW 04:52:14 42° ENE 04:54:17 31° ESE
SL-08 R/B 4.5 04:47:30 10° N 04:53:49 77° E 04:55:04 58° SSE
Cosmos 1818 4.3 04:50:05 10° NW 04:54:36 39° W 04:54:36 39° W
Okean 1 Rocket 4.2 04:51:44 10° N 04:55:48 34° ENE 04:55:52 34° ENE
USA 307 4.5 04:58:25 26° ENE 04:58:25 26° ENE 05:00:25 10° ENE
Cosmos 1461 3.5 04:55:34 10° NNW 04:58:53 55° NNW 04:58:53 55° NNW
Cosmos 220 Rocket 4.4 05:00:58 60° NNW 05:00:58 60° NNW 05:04:33 10° NNE
Cosmos 371 Rocket 3.8 05:02:45 48° E 05:02:45 48° E 05:07:03 10° NNE
Lacrosse 5 3.7 05:04:31 18° E 05:04:31 18° E 05:06:44 10° ENE
ATLAS CENTAUR R/B 2.8 04:58:33 10° NW 05:01:48 33° W 05:01:48 33° W
USA 215 3.9 05:00:20 10° NE 05:06:39 53° NNW 05:12:52 11° WSW
SL-16 R/B 4.1 05:07:55 15° ESE 05:08:29 15° E 05:11:41 10° ENE
Cosmos 1417 Rocket 4.4 05:10:23 63° S 05:11:29 85° E 05:17:42 10° N
Cosmos 1980 3.9 05:11:35 54° ESE 05:11:51 55° ESE 05:17:22 10° NNE
ADEOS Rocket 3.0 05:13:15 53° WSW 05:13:43 55° W 05:19:34 10° NNW
Cosmos 1674 Rocket 3.7 05:14:23 69° N 05:14:23 69° N 05:18:12 10° N
Cosmos 1844 Rocket 4.4 05:11:13 10° WNW 05:14:32 18° W 05:14:32 18° W
Cosmos 2333 Rocket 3.6 05:13:10 23° W 05:15:37 32° NW 05:20:41 10° N
ASTEX 1 3.3 05:11:31 10° N 05:16:27 76° W 05:16:31 75° W
USA 290 4.4 05:21:38 24° NNW 05:21:38 24° NNW 05:23:24 10° N
Cosmos 2221 Rocket 4.1 05:20:54 50° WNW 05:20:54 50° WNW 05:24:54 10° N
ERS-2 4.4 05:22:11 10° NNW 05:24:27 18° WNW 05:24:27 18° WNW
USA 308 3.4 05:27:57 53° NE 05:27:57 53° NE 05:31:13 10° NE
Cosmos 1378 Rocket 3.8 05:28:59 63° NW 05:28:59 63° NW 05:33:05 10° N
Cosmos 1300 3.8 05:25:20 10° N 05:28:26 39° NE 05:28:26 39° NE
Cosmos 1709 Rocket 4.2 05:25:38 10° N 05:31:42 61° E 05:33:27 44° SE
Cosmos 1455 Rocket 4.5 05:28:56 10° NNE 05:32:53 30° ENE 05:33:44 28° E
Cosmos 2219 Rocket 3.6 05:31:30 22° W 05:33:48 30° NW 05:38:41 10° N
Cosmos 2150 Rocket 3.8 05:33:55 74° WSW 05:34:18 80° WNW 05:39:29 10° NNE
Cosmos 2315 Rocket 4.3 05:33:04 47° SE 05:34:41 61° E 05:40:57 10° NNE
Cosmos 1386 Rocket 4.3 05:30:39 10° NNW 05:36:39 73° W 05:37:41 60° SSW
Cosmos 494 Rocket 4.0 05:31:49 10° NNW 05:36:47 63° W 05:36:47 63° W
Cosmos 1048 Rocket 4.1 05:33:09 10° NNW 05:38:01 56° W 05:38:01 56° W
SL-14 R/B 3.8 05:39:35 56° N 05:39:35 56° N 05:42:43 10° N
S3M 4.0 05:38:12 55° SW 05:39:37 73° W 05:46:00 10° N
USA 267 3.1 05:38:54 45° SSE 05:41:02 71° SW 05:47:35 10° NW
CZ-2D R/B 3.6 05:39:03 10° NE 05:43:29 26° E 05:44:50 23° ESE
Meteor 1-16 Rocket 4.3 05:38:37 10° NNW 05:44:28 63° W 05:45:16 57° SW
Cosmos 1125 Rocket 3.6 05:44:18 57° WSW 05:44:55 62° WNW 05:50:05 10° NNE
NOSS 2-2 (C) 4.3 05:40:54 10° NW 05:46:14 81° WSW 05:48:31 45° SSE
Cosmos 405 Rocket 4.0 05:48:25 32° NW 05:48:25 32° NW 05:51:11 10° N
Cosmos 1975 Rocket 3.6 05:48:04 47° E 05:48:12 47° E 05:52:29 10° NNE
USA 229 DEB 3.9 05:42:16 10° NW 05:49:42 73° WSW 05:52:45 40° SSE
USA 305 3.4 05:49:28 51° NW 05:49:43 52° NNW 05:53:48 10° NE
USA 229 3.9 05:42:22 10° NW 05:49:47 74° WSW 05:52:53 40° SSE
Cosmos 1025 Rocket 3.9 05:50:45 39° E 05:50:55 40° E 05:54:57 10° NNE
Cosmos 839 Rocket 4.2 05:47:18 10° NW 05:53:47 82° WSW 05:57:08 36° SSE
Cosmos 1626 4.2 05:55:00 19° WNW 05:55:00 19° WNW 05:57:07 10° NNW
Cosmos 1437 Rocket 4.0 05:52:23 10° NNW 05:54:47 31° NW 05:54:47 31° NW
NOSS 0 Rocket 4.4 05:56:55 39° WSW 05:58:56 55° WNW 06:05:05 10° NNE
Meteor 2-5 Rocket 4.2 05:57:39 42° SE 05:59:11 54° E 06:04:42 10° NNE
Lacrosse 5 rocket 2.7 06:01:10 27° E 06:01:10 27° E 06:03:35 10° ENE
Cosmos 2237 Rocket 2.4 06:02:09 49° WSW 06:03:29 63° WNW 06:09:09 10° NNE
Cosmos 332 Rocket 3.6 06:04:18 74° SW 06:04:41 82° WNW 06:09:30 10° NNE
Cosmos 1953 3.6 06:04:21 10° NNW 06:07:09 31° WNW 06:07:09 31° WNW
COSMOS 2428 4.4 06:05:45 17° W 06:08:34 24° NW 06:13:08 10° N
Resurs 1-4 Rocket 2.8 06:03:46 10° NNE 06:08:49 44° E 06:10:15 36° SE
GP-B 3.0 06:07:10 10° N 06:11:36 76° W 06:11:45 75° WSW
CZ-4C R/B 3.6 06:06:28 10° NW 06:13:24 38° WSW 06:14:45 36° SW
Cosmos 1943 Rocket 2.7 06:13:55 10° NNW 06:19:31 57° ENE 06:23:41 18° SE
Cosmos 1544 Rocket 4.3 06:15:15 10° N 06:19:32 47° ENE 06:20:48 36° SE
IDEFIX/ARIANE 42P 4.3 06:16:34 10° NE 06:20:52 25° E 06:23:29 17° SE
ADEOS II 3.4 06:17:32 10° NE 06:22:10 31° E 06:24:27 22° SE
Thor Agena Rocket 3.6 06:19:29 10° N 06:24:46 72° WNW 06:26:03 51° SW
Cosmos 2297 4.5 06:20:56 10° NNW 06:26:33 51° ENE 06:32:07 10° SE
USA 306 4.4 06:29:56 20° WNW 06:31:58 31° NNW 06:35:44 10° NE
MOS 1 Rocket 4.3 06:31:06 21° SE 06:33:27 39° ENE 06:37:27 10° N
USA 307 4.3 06:34:07 21° WNW 06:36:07 32° NNW 06:39:55 10° NE
Cosmos 2278 Rocket 3.1 06:31:17 10° NW 06:36:05 30° WSW 06:36:05 30° WSW
NPP 3.7 06:38:35 10° NNE 06:44:00 75° ESE 06:46:05 39° S
Lacrosse 5 2.0 06:43:42 41° WSW 06:45:26 70° NW 06:50:33 10° NE
ATLAS 5 CENTAUR R/B 3.9 06:39:52 10° NW 06:45:39 23° W 06:45:39 23° W
Cosmos 2084 Rocket 4.0 06:45:29 36° WNW 06:46:07 39° NW 06:49:42 10° NNE
Cosmos 2154 Rocket 4.4 06:40:47 10° N 06:47:05 62° E 06:51:57 17° SSE
Cosmos 2369 Rocket 3.5 06:44:08 10° N 06:49:22 39° ENE 06:54:34 10° SE
SL-16 R/B 2.2 06:49:47 40° SW 06:51:52 76° WNW 06:57:34 10° NNE
Cosmos 1455 2.0 06:48:32 10° N 06:52:15 83° E 06:52:50 62° SSE
SME Rocket 3.7 06:58:11 37° WSW 06:58:24 37° W 07:02:53 10° NNW
AQUA 3.8 06:54:57 10° NNE 06:59:44 81° ESE 07:01:35 38° S
Cosmos 1269 Rocket 4.2 06:55:10 10° NNW 07:00:15 50° WSW 07:01:45 38° SSW
Cosmos 1271 Rocket 3.3 06:57:22 10° N 07:01:09 55° ENE 07:03:04 26° SE
SL-16 R/B 2.5 07:01:09 25° S 07:05:01 75° WSW 07:11:17 10° NNW
Cosmos 2228 3.9 07:01:31 10° N 07:05:44 46° ENE 07:09:09 14° SSE
Cosmos 2074 Rocket 4.0 07:03:27 10° NNW 07:09:41 64° W 07:13:08 27° SSW
Cosmos 1455 Rocket 4.4 07:06:57 10° NW 07:10:33 24° W 07:10:49 24° W
SAR-Lupe-2 3.5 07:11:00 10° N 07:14:34 68° WNW 07:15:21 49° SW
Cosmos 1295 Rocket 4.5 07:08:33 10° N 07:14:56 89° W 07:19:56 17° S
Meteor 1-24 Rocket 4.4 07:14:11 28° WSW 07:16:22 39° WNW 07:21:29 10° N
Cosmos 1536 Rocket 3.6 07:16:40 37° SSW 07:18:14 65° W 07:22:37 10° N
COSMOS 2455 2.8 07:18:09 29° SW 07:21:22 78° WNW 07:27:26 10° NNE
Cosmos 292 Rocket 3.8 07:20:54 33° SSW 07:23:03 73° WNW 07:27:51 10° NNE
CZ-2D R/B 2.8 07:18:38 10° N 07:23:40 42° WNW 07:26:09 26° WSW
DNEPR-1 R/B 4.4 07:21:45 24° S 07:23:44 39° ESE 07:27:56 10° NE
Cosmos 2184 Rocket 4.3 07:19:57 10° NNW 07:25:56 49° W 07:29:21 25° SSW
Cosmos 1610 Rocket 4.4 07:22:34 10° NNW 07:28:43 72° W 07:33:27 17° S
GPS 2-04 Rocket1 4.4 07:31:42 15° SSE 07:31:42 15° SSE 07:33:18 10° SE
MSX 3.8 07:30:14 10° NNE 07:36:03 87° ESE 07:40:20 19° SSW
Helios 1B rocket 3.9 07:33:33 10° NNE 07:37:13 32° E 07:40:51 10° SSE
Lacrosse 5 rocket 2.5 07:36:40 18° W 07:39:01 34° NNW 07:42:47 10° NNE
Cosmos 1606 Rocket 3.7 07:38:14 10° N 07:42:39 78° E 07:47:00 10° SSE
Cosmos 962 Rocket 4.4 07:36:38 10° N 07:42:47 89° E 07:48:54 10° S
OAO 2 Rocket 4.5 07:42:53 21° SSW 07:44:33 26° SSE 07:48:36 10° ESE
Cosmos 1943 3.3 07:41:37 20° SSW 07:45:41 80° ESE 07:51:24 10° NNE
Cosmos 2181 Rocket 4.4 07:40:56 10° S 07:47:03 62° E 07:53:08 10° NNE
Cosmos 1703 3.7 07:45:42 26° SW 07:47:27 44° WNW 07:51:14 10° N
Resurs 1-4 Rocket 3.5 07:44:07 10° N 07:48:22 25° WNW 07:51:19 16° WSW
Cosmos 2237 Rocket 4.5 07:46:32 10° WNW 07:48:45 12° NW 07:50:59 10° NNW
EO 1 Del DPAF 3.8 07:47:47 10° N 07:51:04 37° WNW 07:52:35 24° WSW
Meteor 2-1 Rocket 4.2 07:46:44 10° N 07:52:31 89° W 07:58:08 10° S
Helios 1A 3.5 07:51:32 21° SSW 07:53:58 41° W 07:57:58 10° NNW
ARIANE 5 R/B 4.3 07:50:19 10° NE 07:54:38 28° E 07:58:53 10° SSE
NOSS 3-3 (A) 3.8 07:52:29 20° SW 07:56:33 83° NW 08:03:00 10° NE
NOSS 3-3 (C) 3.8 07:52:35 20° SW 07:56:39 84° NW 08:03:05 10° NE
CBERS-1 4.2 07:53:07 10° NNE 07:58:15 71° ESE 08:03:21 10° S
Lacrosse 4 Rocket 3.5 07:56:34 10° SSE 07:59:56 23° ESE 08:03:15 10° ENE
IDEFIX/ARIANE 42P 3.2 07:55:37 10° N 08:00:34 43° WNW 08:04:17 17° SW
ADEOS II 3.0 07:57:06 10° N 08:01:50 35° WNW 08:05:23 16° SW
Cosmos 1943 Rocket 3.5 07:58:38 10° NW 08:02:47 21° W 08:05:07 16° SW
Cosmos 2056 Rocket 3.9 07:59:06 10° S 08:04:08 60° ESE 08:09:19 10° NNE
BREEZE-M DEB (TANK) 4.2 08:02:27 16° SSW 08:04:38 39° SE 08:11:48 10° ENE
Cosmos 1408 3.4 08:01:35 10° S 08:05:06 49° E 08:08:38 10° NNE
FENGYUN 3A 4.3 07:59:51 10° NNE 08:05:08 53° E 08:10:23 10° S
Cosmos 1892 3.6 08:03:50 10° SSE 08:07:28 46° E 08:11:05 10° NNE
SL-19 R/B 4.4 08:02:17 10° NNE 08:08:25 88° WNW 08:14:11 10° SSW
ALOS 3.2 08:06:15 10° NNE 08:10:46 48° E 08:15:16 10° S
Cosmos 2263 4.2 08:05:38 10° NNW 08:11:17 67° WSW 08:16:56 10° SSE
IRS-1D 3.8 08:06:32 10° N 08:11:46 57° WNW 08:16:22 13° SSW
Cosmos 2251 Rocket 4.0 08:09:44 10° NW 08:14:39 41° WSW 08:19:34 10° S
Cosmos 1892 Rocket 3.7 08:13:50 12° SSW 08:17:59 65° W 08:22:28 10° N
Cosmos 1190 Rocket 4.2 08:13:10 10° NNW 08:18:30 82° ENE 08:23:48 10° SSE
Cosmos 1726 Rocket 3.8 08:17:24 10° NNW 08:21:41 51° W 08:25:55 10° SSW
Cosmos 2366 rocket 4.0 08:20:31 10° NNW 08:26:39 72° W 08:32:48 10° S
CZ-2C R/B 2.7 08:23:48 10° NNE 08:28:55 72° ESE 08:33:52 10° S
Lacrosse 5 3.8 08:25:13 10° WNW 08:29:13 22° NNW 08:33:12 10° NNE
Cosmos 2341 Rocket 4.4 08:24:48 10° NNW 08:30:51 46° W 08:36:54 10° SSW
PAYLOAD A 4.1 08:26:15 10° NNE 08:31:00 73° ESE 08:35:52 10° S
SL-8 Rocket 4.2 08:26:57 10° NNW 08:33:04 53° W 08:39:10 10° SSW
Cosmos 2369 Rocket 2.9 08:28:23 10° NW 08:33:14 31° WSW 08:38:05 10° SSW
IRS-P3 4.4 08:29:30 10° NNE 08:34:52 73° ESE 08:40:10 10° S
Cosmos 1656 Rocket 4.1 08:30:04 10° NW 08:35:00 37° WSW 08:39:56 10° S
SL-16 R/B 4.3 08:34:03 10° WNW 08:37:00 14° NW 08:39:58 10° NNW
Cosmos 676 Rocket 4.4 08:31:55 10° NNW 08:37:17 72° ENE 08:42:36 10° SSE
Meteor 1-29 3.5 08:34:04 10° NNE 08:37:17 54° E 08:40:28 10° S
BREEZE-M DEB (TANK) 2.7 08:44:05 10° WSW 08:48:04 51° NNW 08:50:14 10° NE
In-Cosmos 22 Rocket 4.3 08:43:22 10° S 08:49:10 83° W 08:55:03 10° N
SL-16 R/B 4.3 08:48:19 10° W 08:49:36 11° W 08:50:54 10° WNW
Cosmos 1420 Rocket 4.1 08:45:10 10° SSW 08:50:19 68° WNW 08:55:31 10° NNE
CZ-3 R/B 4.2 08:52:40 10° W 09:28:20 47° SSW 09:38:00 10° SE
